Weather History for Bradshaw AFB, HI

Change the Weather History Date:

Monday, April 28, 2014

  Actual Average Record
Temperature  
Mean Temperature 56 °F -  
Max Temperature 65 °F 66 °F 77 °F (2008)
Min Temperature 46 °F 47 °F 39 °F (1999)
Degree Days  
Heating Degree Days 10    
Growing Degree Days 6 (Base 50)    
Moisture  
Dew Point 49 °F    
Average Humidity 79    
Maximum Humidity 95    
Minimum Humidity 50    
Precipitation  
Precipitation 0.00 in - - ()
Sea Level Pressure  
Sea Level Pressure 30.06 in    
Wind  
Wind Speed 4 mph (WNW)    
Max Wind Speed 14 mph    
Max Gust Speed 23 mph    
Visibility 8 miles    
Events      
Averages and records for this station are not official NWS values.
T = Trace of Precipitation, MM = Missing Value Source: NWS Daily Summary

Daily Weather History Graph

Daily Weather History Graph

Search for Another Location

Airport:

Trip Planner

Search our weather history database for the weather conditions in past years. The results will help you decide how hot, cold, wet, or windy it might be!

Date:

Astronomy

Apr. 28, 2014 Rise Set
Actual Time 5:55 AM HST 6:44 PM HST
Civil Twilight 5:32 AM HST 7:07 PM HST
Nautical Twilight 5:05 AM HST 7:34 PM HST
Astronomical Twilight 4:37 AM HST 8:01 PM HST
Moon 5:34 AM HST (4/28) 6:36 PM HST (4/28)
Length of Visible Light 13h 35m
Length of Day
12h 49m
Waning Crescent, 0% of the Moon is Illuminated
Apr 28
Waning Crescent
Apr 28
New
May 6
First Quarter
May 14
Full
May 21
Last Quarter

Hourly Weather History & Observations

Time (HST) Temp. Dew Point Humidity Pressure Visibility Wind Dir Wind Speed Gust Speed Precip Events Conditions
12:06 AM 51.8 °F 50.0 °F 94% 30.32 in 7.0 mi Calm Calm - N/A   Mostly Cloudy
12:11 AM 51.8 °F 50.0 °F 94% 30.33 in 7.0 mi West 1.2 mph - N/A   Mostly Cloudy
12:31 AM 51.8 °F 50.0 °F 94% 30.31 in 7.0 mi WNW 2.3 mph - N/A   Mostly Cloudy
12:56 AM 51.6 °F 50.2 °F 95% 29.96 in 6.0 mi West 2.3 mph - N/A   Mostly Cloudy
1:16 AM 51.8 °F 48.2 °F 88% 30.31 in 9.0 mi North 1.2 mph - N/A   Scattered Clouds
1:56 AM 49.6 °F 47.7 °F 93% 29.98 in 7.0 mi Calm Calm - N/A   Mostly Cloudy
2:56 AM 49.1 °F 44.2 °F 83% 29.97 in 10.0 mi ESE 2.3 mph - N/A   Mostly Cloudy
3:56 AM 48.9 °F 46.2 °F 90% 29.96 in 9.0 mi ESE 4.6 mph - N/A   Scattered Clouds
4:56 AM 46.8 °F 42.8 °F 86% 29.99 in 11.0 mi North 3.5 mph - N/A   Partly Cloudy
5:56 AM 48.4 °F 43.5 °F 83% 29.99 in 10.0 mi NNE 4.6 mph - N/A   Partly Cloudy
6:56 AM 52.9 °F 45.3 °F 75% 29.99 in 11.0 mi ESE 2.3 mph - N/A   Scattered Clouds
7:56 AM 60.6 °F 47.3 °F 61% 29.99 in 10.0 mi Calm Calm - N/A   Clear
8:56 AM 62.2 °F 45.3 °F 54% 29.99 in 11.0 mi WSW 4.6 mph - N/A   Clear
9:56 AM 64.9 °F 45.7 °F 50% 29.99 in 10.0 mi WNW 3.5 mph - N/A   Clear
10:56 AM 65.7 °F 49.8 °F 57% 29.98 in 11.0 mi West 10.4 mph 16.1 mph N/A   Partly Cloudy
11:56 AM 65.1 °F 51.8 °F 62% 29.97 in 9.0 mi WSW 11.5 mph 19.6 mph N/A   Partly Cloudy
12:56 PM 64.8 °F 52.2 °F 64% 29.96 in 8.0 mi West 13.8 mph 23.0 mph N/A   Clear
1:56 PM 64.9 °F 53.1 °F 65% 29.94 in 9.0 mi WSW 10.4 mph 16.1 mph N/A   Mostly Cloudy
2:36 PM 64.4 °F 51.8 °F 64% 30.26 in 10.0 mi West 11.5 mph 18.4 mph N/A   Mostly Cloudy
2:56 PM 65.1 °F 51.8 °F 62% 29.93 in 9.0 mi West 10.4 mph 17.3 mph N/A   Mostly Cloudy
3:06 PM 64.4 °F 53.6 °F 68% 30.25 in 9.0 mi West 12.7 mph 18.4 mph N/A   Mostly Cloudy
3:56 PM 62.6 °F 53.1 °F 71% 29.94 in 8.0 mi West 10.4 mph - N/A   Scattered Clouds
4:56 PM 61.2 °F 52.5 °F 73% 29.94 in 9.0 mi WSW 8.1 mph 16.1 mph N/A   Partly Cloudy
5:56 PM 57.6 °F 53.1 °F 85% 29.96 in 8.0 mi West 8.1 mph - N/A   Scattered Clouds
6:56 PM 54.5 °F 52.9 °F 94% 29.99 in 5.0 mi West 3.5 mph - N/A   Mostly Cloudy
7:51 PM 55.4 °F 51.8 °F 88% 30.30 in 7.0 mi NNE 3.5 mph - N/A   Mostly Cloudy
7:56 PM 55.0 °F 52.0 °F 89% 29.98 in 7.0 mi NNE 3.5 mph - N/A   Scattered Clouds
8:01 PM 55.4 °F 51.8 °F 88% 30.30 in 7.0 mi NNE 2.3 mph - N/A   Mostly Cloudy
8:16 PM 55.4 °F 51.8 °F 88% 30.30 in 7.0 mi Calm Calm - N/A   Scattered Clouds
8:56 PM 52.0 °F 48.2 °F 87% 30.00 in 7.0 mi WNW 1.2 mph - N/A   Clear
9:56 PM 49.8 °F 46.2 °F 87% 30.00 in 8.0 mi ESE 3.5 mph - N/A   Clear
10:56 PM 48.0 °F 44.8 °F 89% 30.00 in 8.0 mi East 2.3 mph - N/A   Clear
11:56 PM 46.9 °F 43.2 °F 87% 30.00 in 9.0 mi ESE 1.2 mph - N/A   Clear